Location: Unspecified
(0.0000°N, 0.0000°E)
Time: 18:13:15
(UTC+00:00)

Courier 1B Rocket - Pass Details

Date: 02 October 2020
Orbit: 921 x 1202 km, 28.2° (Epoch: 27 October)

Event Time Altitude Azimuth Distance (km) Brightness Sun altitude
Rises 00:05:59 0° 229° (SW) 4,056 - -84.5°
Reaches altitude 10° 00:09:00 10° 224° (SW) 3,065 - -83.9°
Maximum altitude 00:16:16 48° 151° (SSE) 1,420 - -82.3°
Drops below altitude 10° 00:23:02 10° 79° (ENE) 2,872 - -80.8°
Sets 00:25:46 0° 73° (ENE) 3,781 - -80.2°
